DW3216 Weather Reports


Display with metric or nautical units.
time (UTC)temp
F
wind
direction
speed
MPH
gust
MPH
rain 1hr
in
rain 24hr
in
rain mn
in
humidity
%
barometer
mb
20180624013611 65 290 1.0 3.0 0.00 0.10 0.01 90 1010.4
20180624013111 65 292 0.0 3.0 0.00 0.10 0.01 90 1010.3
20180624012611 65 338 0.0 2.0 0.00 0.10 0.01 90 1010.4
20180624012110 65 339 0.0 3.0 0.00 0.10 0.01 90 1010.3
20180624011611 65 328 0.0 2.0 0.00 0.10 0.01 90 1010.4
20180624011111 65 251 0.0 2.0 0.00 0.10 0.01 90 1010.5
20180624010611 65 248 1.0 3.0 0.00 0.10 0.01 90 1010.5
20180624010112 65 308 0.0 2.0 0.00 0.10 0.01 90 1010.4
20180624005611 65 286 0.0 1.0 0.00 0.10 0.01 90 1010.3
20180624005111 65 291 1.0 3.0 0.00 0.10 0.01 90 1010.2
20180624004612 65 293 1.0 5.0 0.00 0.10 0.01 90 1010.2
20180624004111 65 50 1.0 3.0 0.00 0.10 0.01 90 1010.1
20180624003612 65 308 0.0 2.0 0.00 0.10 0.01 90 1010.1
20180624003111 65 9 0.0 3.0 0.00 0.10 0.01 90 1010.2
20180624002611 65 341 0.0 2.0 0.00 0.10 0.01 90 1010.3
20180624002110 65 339 1.0 3.0 0.00 0.10 0.01 90 1010.3
20180624001611 65 299 1.0 5.0 0.00 0.10 0.01 90 1010.2
20180624001111 65 267 1.0 3.0 0.00 0.10 0.01 90 1010.1
20180624000611 65 332 0.0 2.0 0.00 0.10 0.01 89 1010.1
20180624000112 65 329 0.0 2.0 0.00 0.10 0.01 89 1010.1
20180623235611 65 321 0.0 2.0 0.00 0.10 0.01 89 1010.1
20180623235111 65 309 0.0 2.0 0.00 0.10 0.01 89 1010.1
20180623234611 65 316 1.0 3.0 0.00 0.10 0.01 89 1010.0
20180623234111 65 349 0.0 2.0 0.00 0.10 0.01 89 1010.1
20180623233611 65 350 1.0 3.0 0.00 0.10 0.01 89 1009.9
20180623233111 65 4 1.0 3.0 0.00 0.10 0.01 89 1009.9
20180623232610 65 24 0.0 3.0 0.00 0.10 0.01 89 1009.7
20180623232110 65 12 0.0 3.0 0.00 0.10 0.01 89 1009.7
20180623231611 65 0 1.0 2.0 0.00 0.10 0.01 89 1009.7
20180623231110 65 10 0.0 2.0 0.00 0.10 0.01 89 1009.7
20180623230611 65 3 0.0 3.0 0.00 0.10 0.01 89 1009.8
20180623230116 65 330 0.0 2.0 0.00 0.10 0.01 89 1009.6
20180623225611 65 303 1.0 5.0 0.00 0.10 0.01 89 1009.8
20180623225111 65 309 1.0 3.0 0.00 0.10 0.01 89 1009.7
20180623224611 65 42 1.0 3.0 0.00 0.10 0.01 88 1009.7
20180623224111 65 47 1.0 5.0 0.00 0.10 0.01 88 1009.7
20180623223611 66 262 1.0 5.0 0.00 0.10 0.01 87 1009.8
20180623223111 66 48 2.0 3.0 0.00 0.10 0.01 88 1010.0
20180623222610 66 291 0.0 3.0 0.00 0.10 0.01 88 1009.9
20180623222111 66 24 1.0 3.0 0.00 0.10 0.01 88 1009.8
20180623221611 66 341 1.0 3.0 0.00 0.10 0.01 87 1009.8
20180623221111 66 36 1.0 3.0 0.00 0.10 0.01 89 1009.8
20180623220610 66 268 1.0 5.0 0.00 0.10 0.01 88 1009.8
20180623220113 66 304 1.0 5.0 0.00 0.10 0.01 88 1009.8
20180623215611 66 353 1.0 6.0 0.00 0.10 0.01 87 1009.9
20180623215111 66 278 1.0 2.0 0.00 0.10 0.01 87 1009.9
20180623214611 66 47 2.0 3.0 0.00 0.10 0.01 87 1009.9
20180623214111 66 34 1.0 6.0 0.00 0.10 0.01 87 1009.8
20180623213610 66 282 2.0 5.0 0.00 0.10 0.01 87 1009.8
20180623213112 66 13 3.0 5.0 0.00 0.10 0.01 87 1009.9
20180623212611 65 280 2.0 6.0 0.00 0.10 0.01 87 1010.0
20180623212111 66 296 1.0 5.0 0.00 0.10 0.01 87 1010.1
20180623211611 66 280 2.0 6.0 0.00 0.10 0.01 87 1009.9
20180623211111 66 296 2.0 6.0 0.00 0.10 0.01 87 1009.8
20180623210611 66 33 1.0 5.0 0.00 0.10 0.01 88 1009.8
20180623210112 65 283 3.0 7.0 0.00 0.10 0.01 87 1009.8
20180623205611 66 281 0.0 3.0 0.00 0.10 0.01 88 1009.9
20180623205111 66 289 2.0 5.0 0.00 0.10 0.01 88 1009.9
20180623204611 66 356 1.0 5.0 0.00 0.10 0.01 88 1009.8
20180623204110 65 276 2.0 5.0 0.00 0.10 0.01 88 1009.7
20180623203611 66 313 1.0 6.0 0.00 0.10 0.01 88 1009.8
20180623203111 65 296 1.0 6.0 0.00 0.10 0.01 88 1009.8
20180623202611 66 281 1.0 6.0 0.00 0.10 0.01 88 1009.8
20180623202110 65 334 2.0 7.0 0.00 0.10 0.01 89 1009.9
20180623201611 65 289 2.0 5.0 0.00 0.10 0.01 88 1010.0
20180623201111 65 309 1.0 3.0 0.00 0.10 0.01 88 1009.9
20180623200611 65 293 1.0 6.0 0.00 0.10 0.01 88 1009.9
20180623200113 65 0 2.0 7.0 0.00 0.10 0.01 89 1009.9
20180623195610 65 300 4.0 7.0 0.00 0.10 0.01 88 1009.9
20180623195111 65 282 2.0 6.0 0.00 0.10 0.01 89 1009.9
20180623194610 65 293 3.0 7.0 0.00 0.10 0.01 89 1009.9
20180623194110 64 290 1.0 6.0 0.00 0.10 0.01 90 1009.8
20180623193610 64 303 1.0 7.0 0.00 0.10 0.01 89 1009.8
20180623193111 64 285 2.0 5.0 0.00 0.10 0.01 89 1009.9
20180623192611 64 316 2.0 9.0 0.00 0.10 0.01 89 1010.2
20180623192111 64 307 2.0 5.0 0.00 0.10 0.01 89 1010.2
20180623191610 64 11 2.0 3.0 0.00 0.10 0.01 89 1010.3
20180623191110 64 300 2.0 6.0 0.00 0.10 0.01 89 1010.4
20180623190611 64 301 3.0 8.0 0.00 0.10 0.01 89 1010.4
20180623190112 64 279 1.0 7.0 0.00 0.10 0.01 89 1010.5
20180623185611 64 25 2.0 6.0 0.00 0.10 0.01 89 1010.5
20180623185110 64 15 2.0 6.0 0.00 0.10 0.01 89 1010.6
20180623184610 64 288 1.0 3.0 0.00 0.10 0.01 90 1010.7
20180623184111 63 273 3.0 6.0 0.00 0.10 0.01 90 1010.8
20180623183611 64 279 2.0 6.0 0.00 0.10 0.01 89 1010.8
20180623183110 64 258 1.0 3.0 0.00 0.10 0.01 90 1010.8
20180623182611 63 280 2.0 5.0 0.00 0.10 0.01 90 1010.8
20180623182111 63 206 1.0 3.0 0.00 0.10 0.01 90 1010.8
20180623181611 64 283 4.0 7.0 0.00 0.10 0.01 89 1010.8
20180623181110 64 150 1.0 8.0 0.00 0.10 0.01 90 1010.8
20180623180611 64 292 2.0 5.0 0.00 0.10 0.01 89 1010.7
20180623180112 64 287 4.0 7.0 0.00 0.10 0.01 89 1010.7
20180623175610 63 269 3.0 9.0 0.00 0.10 0.01 89 1010.8
20180623175110 63 318 2.0 5.0 0.00 0.10 0.01 89 1010.8
20180623174610 63 2 1.0 6.0 0.00 0.10 0.01 89 1010.8
20180623174111 63 356 2.0 5.0 0.00 0.10 0.01 90 1010.8
20180623173610 63 273 3.0 6.0 0.00 0.10 0.01 90 1011.1
20180623173111 63 274 2.0 5.0 0.00 0.10 0.01 90 1011.2
20180623172611 63 293 3.0 6.0 0.00 0.10 0.01 90 1011.1
20180623172111 63 267 2.0 8.0 0.00 0.10 0.01 90 1011.1
20180623171611 63 294 1.0 8.0 0.00 0.10 0.01 90 1011.0
20180623171111 63 283 4.0 8.0 0.00 0.10 0.01 90 1010.9
20180623170611 63 296 4.0 9.0 0.00 0.10 0.01 90 1011.1
20180623170112 63 284 2.0 7.0 0.00 0.10 0.01 90 1011.0
20180623165610 62 0 2.0 7.0 0.00 0.10 0.01 90 1011.1
20180623165110 62 288 2.0 8.0 0.00 0.10 0.01 90 1011.1
20180623164610 62 283 3.0 12.0 0.00 0.10 0.01 90 1011.1
20180623164111 62 273 4.0 9.0 0.00 0.10 0.01 89 1011.2
20180623163611 63 297 3.0 9.0 0.00 0.10 0.01 89 1011.2
20180623163111 63 306 2.0 8.0 0.00 0.10 0.01 89 1011.2
20180623162611 63 331 2.0 5.0 0.00 0.10 0.01 90 1011.2
20180623162110 62 327 2.0 9.0 0.00 0.10 0.01 89 1011.3
20180623161610 63 282 1.0 8.0 0.00 0.10 0.01 89 1011.4
20180623161111 62 269 3.0 8.0 0.00 0.10 0.01 89 1011.3
20180623160611 62 277 4.0 9.0 0.00 0.10 0.01 89 1011.3
20180623160113 63 298 3.0 12.0 0.00 0.10 0.01 89 1011.4
20180623155611 63 287 4.0 6.0 0.00 0.10 0.01 88 1011.5
20180623155110 63 320 3.0 9.0 0.00 0.10 0.01 89 1011.5
20180623154611 63 295 5.0 12.0 0.00 0.10 0.01 89 1011.5
20180623154110 63 292 5.0 12.0 0.00 0.10 0.01 89 1011.6
20180623153611 63 288 5.0 9.0 0.00 0.10 0.01 88 1011.5
20180623153110 63 310 3.0 8.0 0.00 0.10 0.01 89 1011.6
20180623152610 63 289 3.0 7.0 0.00 0.10 0.01 88 1011.5
20180623152111 63 306 3.0 8.0 0.00 0.10 0.01 88 1011.5
20180623151611 63 277 3.0 9.0 0.00 0.10 0.01 88 1011.5
20180623151110 63 287 2.0 8.0 0.00 0.10 0.01 87 1011.6
20180623150611 63 0 1.0 6.0 0.00 0.10 0.01 87 1011.5
20180623150112 63 320 5.0 9.0 0.00 0.10 0.01 87 1011.5
20180623145610 63 309 4.0 8.0 0.00 0.10 0.01 86 1011.7
20180623145111 63 274 2.0 8.0 0.00 0.10 0.01 86 1011.7
20180623144611 64 277 4.0 7.0 0.00 0.10 0.01 85 1011.7
20180623144110 64 273 2.0 7.0 0.00 0.10 0.01 85 1011.7
20180623143611 64 275 4.0 9.0 0.00 0.10 0.01 85 1011.6
20180623143110 64 303 3.0 8.0 0.00 0.10 0.01 84 1011.4
20180623142610 64 283 5.0 7.0 0.00 0.10 0.01 84 1011.5
20180623142110 64 285 3.0 8.0 0.00 0.10 0.01 84 1011.6
20180623141610 64 261 2.0 6.0 0.00 0.10 0.01 84 1011.4
20180623141111 64 273 1.0 5.0 0.00 0.10 0.01 84 1011.5
20180623140611 64 278 4.0 9.0 0.00 0.10 0.01 83 1011.6
20180623140113 64 260 2.0 6.0 0.00 0.10 0.01 83 1011.5
20180623135611 64 255 2.0 12.0 0.00 0.10 0.01 83 1011.7
20180623135110 64 290 3.0 9.0 0.00 0.10 0.01 82 1011.9
20180623134610 64 287 5.0 9.0 0.00 0.10 0.01 82 1011.9
20180623134111 64 293 3.0 9.0 0.00 0.10 0.01 81 1011.9
20180623133610 64 304 2.0 9.0 0.00 0.10 0.01 81 1011.9
20180623133110 64 289 4.0 8.0 0.00 0.10 0.01 81 1012.1
20180623132611 64 298 2.0 8.0 0.00 0.10 0.01 81 1012.0
20180623132111 64 263 5.0 8.0 0.00 0.10 0.01 80 1011.9
20180623131611 64 287 3.0 7.0 0.00 0.10 0.01 80 1011.9
20180623131111 64 270 3.0 7.0 0.00 0.10 0.01 80 1012.0
20180623130611 64 284 3.0 6.0 0.00 0.10 0.01 80 1011.9
20180623130113 64 346 2.0 8.0 0.00 0.10 0.01 80 1012.1
20180623125610 64 271 1.0 8.0 0.00 0.10 0.01 80 1012.1
20180623125110 64 298 3.0 8.0 0.00 0.10 0.01 79 1012.2
20180623124610 64 299 5.0 9.0 0.00 0.10 0.01 79 1012.1
20180623124110 64 288 3.0 9.0 0.00 0.10 0.01 79 1012.0
20180623123610 64 306 3.0 10.0 0.00 0.10 0.01 79 1012.0
20180623123111 64 296 3.0 8.0 0.00 0.10 0.01 78 1012.0
20180623122610 64 254 4.0 9.0 0.01 0.10 0.01 77 1012.1
20180623122110 64 325 2.0 8.0 0.01 0.10 0.01 77 1012.1
20180623121611 64 293 4.0 8.0 0.01 0.10 0.01 77 1012.0
20180623121110 64 22 2.0 5.0 0.01 0.10 0.01 76 1012.0
20180623120610 65 269 2.0 6.0 0.01 0.10 0.01 76 1012.1
20180623120112 65 228 2.0 8.0 0.01 0.10 0.01 74 1012.1
20180623115610 65 49 1.0 7.0 0.01 0.10 0.01 74 1012.3
20180623115110 65 248 2.0 7.0 0.01 0.10 0.01 74 1012.4
20180623114610 65 295 3.0 6.0 0.01 0.10 0.01 73 1012.4
20180623114110 65 261 1.0 3.0 0.01 0.10 0.01 73 1012.4
20180623113610 65 348 3.0 7.0 0.01 0.10 0.01 72 1012.4
20180623113110 65 284 3.0 7.0 0.01 0.10 0.01 72 1012.3
20180623112611 65 239 2.0 7.0 0.00 0.09 0.00 71 1012.4
20180623112110 65 294 2.0 6.0 0.00 0.09 0.00 71 1012.4
20180623111610 65 280 2.0 6.0 0.00 0.09 0.00 72 1012.5
20180623111110 65 268 2.0 6.0 0.00 0.09 0.00 72 1012.5
20180623110611 65 302 2.0 6.0 0.00 0.09 0.00 72 1012.4
20180623110112 65 324 2.0 6.0 0.00 0.09 0.00 72 1012.3
20180623105611 65 309 2.0 6.0 0.00 0.09 0.00 70 1012.4
20180623105111 65 290 2.0 6.0 0.00 0.09 0.00 69 1012.5
20180623104610 65 278 2.0 5.0 0.00 0.09 0.00 68 1012.5
20180623104111 65 279 2.0 7.0 0.00 0.09 0.00 68 1012.4
20180623103610 65 286 2.0 5.0 0.00 0.09 0.00 69 1012.5
20180623103110 65 296 2.0 7.0 0.00 0.09 0.00 69 1012.4
20180623102610 65 1 1.0 6.0 0.00 0.09 0.00 70 1012.5
20180623102110 65 270 1.0 5.0 0.00 0.09 0.00 71 1012.5
20180623101610 64 268 1.0 5.0 0.00 0.09 0.00 71 1012.3
20180623101111 64 17 2.0 5.0 0.00 0.09 0.00 72 1012.4
20180623100610 64 283 2.0 7.0 0.00 0.09 0.00 73 1012.4
20180623100112 64 280 1.0 7.0 0.00 0.09 0.00 75 1012.5
20180623095610 64 345 2.0 6.0 0.00 0.09 0.00 76 1012.6
20180623095110 64 264 2.0 5.0 0.00 0.09 0.00 76 1012.6
20180623094611 64 308 3.0 8.0 0.00 0.09 0.00 77 1012.6
20180623094110 64 289 3.0 7.0 0.00 0.09 0.00 77 1012.6
20180623093611 64 283 2.0 5.0 0.00 0.09 0.00 77 1012.5
20180623093111 64 262 3.0 7.0 0.00 0.09 0.00 77 1012.5
20180623092611 64 280 3.0 6.0 0.00 0.09 0.00 77 1012.4
20180623092110 64 306 3.0 7.0 0.00 0.09 0.00 76 1012.5
20180623091110 64 291 3.0 8.0 0.00 0.09 0.00 77 1012.7
20180623090610 64 264 2.0 7.0 0.00 0.09 0.00 77 1012.7
20180623090112 64 257 1.0 3.0 0.00 0.09 0.00 78 1012.8
20180623085611 64 281 1.0 7.0 0.00 0.09 0.00 79 1012.9
20180623085110 64 308 3.0 6.0 0.00 0.09 0.00 80 1013.0
20180623084610 64 281 1.0 6.0 0.00 0.09 0.00 80 1012.8
20180623084111 64 282 1.0 5.0 0.00 0.09 0.00 81 1012.7
20180623083610 64 272 2.0 5.0 0.00 0.09 0.00 81 1012.8
20180623083111 64 286 1.0 3.0 0.00 0.09 0.00 81 1012.9
20180623082610 64 254 1.0 5.0 0.00 0.09 0.00 81 1013.0
20180623082110 64 301 1.0 6.0 0.00 0.09 0.00 82 1013.1
20180623081611 64 291 1.0 5.0 0.00 0.09 0.00 82 1013.2
20180623081111 64 316 2.0 5.0 0.00 0.09 0.00 82 1013.1
20180623080610 64 273 1.0 5.0 0.00 0.09 0.00 82 1013.1
20180623080111 64 311 1.0 7.0 0.00 0.09 0.00 83 1013.2
20180623075611 64 31 1.0 5.0 0.00 0.09 0.00 83 1013.1
20180623075111 64 8 1.0 7.0 0.00 0.09 0.00 83 1013.3
20180623074610 64 283 2.0 6.0 0.00 0.09 0.00 84 1013.3
20180623074110 64 289 2.0 5.0 0.00 0.09 0.00 84 1013.3
20180623073610 64 275 2.0 6.0 0.00 0.09 0.00 85 1013.2
20180623073110 64 300 3.0 8.0 0.00 0.09 0.00 86 1013.2
20180623072610 64 292 2.0 5.0 0.00 0.09 0.00 86 1013.2
20180623072110 64 38 0.0 3.0 0.00 0.09 0.00 87 1013.3
20180623071611 64 318 1.0 3.0 0.00 0.09 0.00 87 1013.5
20180623071110 64 342 1.0 3.0 0.00 0.09 0.00 88 1013.7
20180623070611 64 273 1.0 6.0 0.00 0.09 0.00 88 1013.9
20180623070112 64 256 1.0 3.0 0.00 0.09 0.00 88 1013.9
20180623065610 64 266 1.0 3.0 0.00 0.09 0.00 88 1013.9
20180623065110 64 284 1.0 5.0 0.00 0.09 0.00 89 1014.0
20180623064611 64 331 1.0 3.0 0.00 0.09 0.00 89 1013.9
20180623064111 64 266 1.0 3.0 0.00 0.09 0.00 89 1014.2
20180623063611 64 251 2.0 7.0 0.00 0.09 0.00 90 1014.3
20180623063110 64 287 3.0 8.0 0.00 0.09 0.00 90 1014.4
20180623062610 64 308 1.0 5.0 0.00 0.09 0.00 90 1014.6
20180623062110 64 358 1.0 3.0 0.00 0.09 0.00 90 1014.7
20180623061610 64 269 0.0 3.0 0.00 0.09 0.00 91 1014.6
20180623061110 64 272 1.0 3.0 0.00 0.09 0.00 91 1014.5
20180623060610 64 264 1.0 5.0 0.00 0.09 0.00 91 1014.5
20180623060112 64 286 2.0 6.0 0.00 0.09 0.00 91 1014.4
20180623055610 64 297 3.0 9.0 0.00 0.09 0.00 90 1014.3
20180623055110 64 287 2.0 5.0 0.00 0.09 0.00 90 1014.6
20180623054610 64 283 1.0 6.0 0.00 0.09 0.00 90 1014.8
20180623054110 64 16 1.0 3.0 0.00 0.09 0.00 90 1014.9
20180623053611 64 251 2.0 3.0 0.00 0.09 0.00 90 1014.9
20180623053110 64 306 0.0 5.0 0.00 0.09 0.00 90 1015.0
20180623052610 63 276 0.0 5.0 0.00 0.09 0.00 90 1015.1
20180623052110 63 328 1.0 6.0 0.00 0.09 0.00 90 1015.2
20180623051611 63 49 1.0 3.0 0.00 0.09 0.00 90 1015.2
20180623051110 63 7 2.0 5.0 0.00 0.09 0.00 90 1015.0
20180623050610 63 317 2.0 6.0 0.00 0.09 0.00 90 1015.0
20180623050111 63 303 3.0 6.0 0.00 0.09 0.00 92 1015.0
20180623045610 63 261 1.0 3.0 0.00 0.09 0.00 91 1015.1
20180623045110 63 325 0.0 9.0 0.02 0.09 0.00 91 1015.0
20180623044610 63 283 2.0 9.0 0.05 0.09 0.00 90 1015.0
20180623044110 63 284 0.0 2.0 0.07 0.09 0.00 90 1015.1
20180623043609 63 295 1.0 6.0 0.08 0.09 0.00 90 1015.1
20180623043110 64 287 3.0 6.0 0.08 0.09 0.00 90 1015.3
20180623042610 64 280 1.0 5.0 0.00 0.09 0.00 90 1015.3
20180623042110 64 349 1.0 3.0 0.00 0.09 0.00 89 1015.5
20180623041611 64 1 1.0 3.0 0.00 0.09 0.00 89 1015.5
20180623041109 64 20 1.0 3.0 0.00 0.09 0.00 88 1015.6
20180623040610 64 285 0.0 3.0 0.00 0.09 0.00 88 1015.8
20180623040112 64 14 1.0 3.0 0.00 0.09 0.00 87 1015.8
20180623035610 65 270 1.0 3.0 0.09 0.09 0.09 86 1015.8
20180623035111 65 308 1.0 2.0 0.07 0.07 0.07 85 1015.9
20180623034610 65 358 1.0 5.0 0.05 0.05 0.05 85 1015.9
20180623034110 66 274 2.0 5.0 0.03 0.03 0.03 84 1016.0
20180623033610 66 320 1.0 5.0 0.01 0.01 0.01 84 1016.1
20180623033111 66 310 1.0 2.0 0.01 0.01 0.01 83 1016.1
20180623032611 66 27 2.0 3.0 0.00 0.00 0.00 82 1016.1
20180623032110 67 48 1.0 5.0 0.00 0.00 0.00 82 1016.2
20180623031610 67 10 1.0 5.0 0.00 0.00 0.00 82 1016.2
20180623031110 67 22 1.0 8.0 0.00 0.00 0.00 81 1016.1
20180623030610 67 300 1.0 5.0 0.00 0.00 0.00 81 1016.2
20180623030111 67 304 2.0 3.0 0.00 0.00 0.00 80 1016.2
20180623025610 68 10 1.0 3.0 0.00 0.00 0.00 80 1016.2
20180623025111 67 20 2.0 5.0 0.00 0.00 0.00 79 1016.2
20180623024610 67 354 2.0 5.0 0.00 0.00 0.00 79 1016.2
20180623024110 67 42 3.0 5.0 0.00 0.00 0.00 80 1016.2
20180623023610 67 242 1.0 3.0 0.00 0.00 0.00 81 1016.2
20180623023110 67 8 1.0 5.0 0.00 0.00 0.00 81 1016.0
20180623022610 67 290 1.0 5.0 0.00 0.00 0.00 81 1016.0
20180623022110 68 287 1.0 3.0 0.00 0.00 0.00 81 1015.9
20180623021610 68 346 1.0 5.0 0.00 0.00 0.00 81 1016.1
20180623021110 68 15 2.0 6.0 0.00 0.00 0.00 81 1016.1
20180623020611 68 339 0.0 3.0 0.00 0.00 0.00 81 1016.0
20180623020112 68 334 2.0 6.0 0.00 0.00 0.00 81 1015.8
20180623015611 68 287 1.0 3.0 0.00 0.00 0.00 81 1016.0
20180623015110 68 335 1.0 6.0 0.00 0.00 0.00 81 1015.9
20180623014610 68 52 3.0 5.0 0.00 0.00 0.00 81 1015.7
20180623014110 68 352 2.0 5.0 0.00 0.00 0.00 81 1015.8